Year,Month,Day,Hour,Minute,Value (Times are PST for temperature in C)
2012,06,24,00,00,11.00
2012,06,24,00,01,11.00
2012,06,24,00,02,11.00
2012,06,24,00,03,10.90
2012,06,24,00,04,10.90
2012,06,24,00,05,10.90
2012,06,24,00,06,10.90
2012,06,24,00,07,10.80
2012,06,24,00,08,10.80
2012,06,24,00,09,10.80
2012,06,24,00,10,10.80
2012,06,24,00,11,10.80
2012,06,24,00,12,10.80
2012,06,24,00,13,10.80
2012,06,24,00,14,10.70
2012,06,24,00,15,10.70
2012,06,24,00,16,10.70
2012,06,24,00,17,10.70
2012,06,24,00,18,10.70
2012,06,24,00,19,10.70
2012,06,24,00,20,10.70
2012,06,24,00,21,10.60
2012,06,24,00,22,10.60
2012,06,24,00,23,10.60
2012,06,24,00,24,10.60
2012,06,24,00,25,10.50
2012,06,24,00,26,10.50
2012,06,24,00,27,10.40
2012,06,24,00,28,10.40
2012,06,24,00,29,10.30
2012,06,24,00,30,10.30
2012,06,24,00,31,10.30
2012,06,24,00,32,10.30
2012,06,24,00,33,10.20
2012,06,24,00,34,10.20
2012,06,24,00,35,10.20
2012,06,24,00,36,10.20
2012,06,24,00,37,10.20
2012,06,24,00,38,10.10
2012,06,24,00,39,10.10
2012,06,24,00,40,10.10
2012,06,24,00,41,10.10
2012,06,24,00,42,10.10
2012,06,24,00,43,10.00
2012,06,24,00,44,10.00
2012,06,24,00,45,10.00
2012,06,24,00,46,10.00
2012,06,24,00,47,10.00
2012,06,24,00,48,9.90
2012,06,24,00,49,9.90
2012,06,24,00,50,9.90
2012,06,24,00,51,9.90
2012,06,24,00,52,9.90
2012,06,24,00,53,9.90
2012,06,24,00,54,9.90
2012,06,24,00,55,9.90
2012,06,24,00,56,9.80
2012,06,24,00,57,9.80
2012,06,24,00,58,9.80
2012,06,24,00,59,9.80
2012,06,24,01,00,9.80
2012,06,24,01,01,9.80
2012,06,24,01,02,9.80
2012,06,24,01,03,9.70
2012,06,24,01,04,9.70
2012,06,24,01,05,9.70
2012,06,24,01,06,9.70
2012,06,24,01,07,9.60
2012,06,24,01,08,9.60
2012,06,24,01,09,9.60
2012,06,24,01,10,9.60
2012,06,24,01,11,9.60
2012,06,24,01,12,9.60
2012,06,24,01,13,9.60
2012,06,24,01,14,9.60
2012,06,24,01,15,9.60
2012,06,24,01,16,9.60
2012,06,24,01,17,9.60
2012,06,24,01,18,9.50
2012,06,24,01,19,9.50
2012,06,24,01,20,9.50
2012,06,24,01,21,9.40
2012,06,24,01,22,9.40
2012,06,24,01,23,9.40
2012,06,24,01,24,9.40
2012,06,24,01,25,9.40
2012,06,24,01,26,9.40
2012,06,24,01,27,9.40
2012,06,24,01,28,9.40
2012,06,24,01,29,9.40
2012,06,24,01,30,9.40
2012,06,24,01,31,9.40
2012,06,24,01,32,9.40
2012,06,24,01,33,9.40
2012,06,24,01,34,9.40
2012,06,24,01,35,9.40
2012,06,24,01,36,9.40
2012,06,24,01,37,9.40
2012,06,24,01,38,9.40
2012,06,24,01,39,9.40
2012,06,24,01,40,9.30
2012,06,24,01,41,9.30
2012,06,24,01,42,9.30
2012,06,24,01,43,9.30
2012,06,24,01,44,9.30
2012,06,24,01,45,9.30
2012,06,24,01,46,9.30
2012,06,24,01,47,9.30
2012,06,24,01,48,9.30
2012,06,24,01,49,9.30
2012,06,24,01,50,9.30
2012,06,24,01,51,9.30
2012,06,24,01,52,9.30
2012,06,24,01,53,9.30
2012,06,24,01,54,9.30
2012,06,24,01,55,9.30
2012,06,24,01,56,9.30
2012,06,24,01,57,9.30
2012,06,24,01,58,9.20
2012,06,24,01,59,9.20
2012,06,24,02,00,9.20
2012,06,24,02,01,9.10
2012,06,24,02,02,9.10
2012,06,24,02,03,9.00
2012,06,24,02,04,8.90
2012,06,24,02,05,8.90
2012,06,24,02,06,8.80
2012,06,24,02,07,8.80
2012,06,24,02,08,8.70
2012,06,24,02,09,8.70
2012,06,24,02,10,8.60
2012,06,24,02,11,8.60
2012,06,24,02,12,8.60
2012,06,24,02,13,8.50
2012,06,24,02,14,8.50
2012,06,24,02,15,8.40
2012,06,24,02,16,8.40
2012,06,24,02,17,8.30
2012,06,24,02,18,8.30
2012,06,24,02,19,8.30
2012,06,24,02,20,8.20
2012,06,24,02,21,8.20
2012,06,24,02,22,8.10
2012,06,24,02,23,8.10
2012,06,24,02,24,8.00
2012,06,24,02,25,8.00
2012,06,24,02,26,7.90
2012,06,24,02,27,7.90
2012,06,24,02,28,7.90
2012,06,24,02,29,7.90
2012,06,24,02,30,7.90
2012,06,24,02,31,7.90
2012,06,24,02,32,7.80
2012,06,24,02,33,7.80
2012,06,24,02,34,7.80
2012,06,24,02,35,7.80
2012,06,24,02,36,7.80
2012,06,24,02,37,7.80
2012,06,24,02,38,7.70
2012,06,24,02,39,7.70
2012,06,24,02,40,7.70
2012,06,24,02,41,7.70
2012,06,24,02,42,7.70
2012,06,24,02,43,7.70
2012,06,24,02,44,7.70
2012,06,24,02,45,7.60
2012,06,24,02,46,7.60
2012,06,24,02,47,7.60
2012,06,24,02,48,7.60
2012,06,24,02,49,7.60
2012,06,24,02,50,7.60
2012,06,24,02,51,7.60
2012,06,24,02,52,7.60
2012,06,24,02,53,7.50
2012,06,24,02,54,7.50
2012,06,24,02,55,7.50
2012,06,24,02,56,7.40
2012,06,24,02,57,7.40
2012,06,24,02,58,7.40
2012,06,24,02,59,7.40
2012,06,24,03,00,7.40
2012,06,24,03,01,7.40
2012,06,24,03,02,7.40
2012,06,24,03,03,7.30
2012,06,24,03,04,7.30
2012,06,24,03,05,7.30
2012,06,24,03,06,7.30
2012,06,24,03,07,7.30
2012,06,24,03,08,7.30
2012,06,24,03,09,7.30
2012,06,24,03,10,7.20
2012,06,24,03,11,7.20
2012,06,24,03,12,7.20
2012,06,24,03,13,7.20
2012,06,24,03,14,7.20
2012,06,24,03,15,7.20
2012,06,24,03,16,7.20
2012,06,24,03,17,7.10
2012,06,24,03,18,7.10
2012,06,24,03,19,7.10
2012,06,24,03,20,7.10
2012,06,24,03,21,7.10
2012,06,24,03,22,7.10
2012,06,24,03,23,7.10
2012,06,24,03,24,7.20
2012,06,24,03,25,7.20
2012,06,24,03,26,7.20
2012,06,24,03,27,7.20
2012,06,24,03,28,7.20
2012,06,24,03,29,7.20
2012,06,24,03,30,7.20
2012,06,24,03,31,7.20
2012,06,24,03,32,7.10
2012,06,24,03,33,7.10
2012,06,24,03,34,7.10
2012,06,24,03,35,7.10
2012,06,24,03,36,7.10
2012,06,24,03,37,7.10
2012,06,24,03,38,7.10
2012,06,24,03,39,7.10
2012,06,24,03,40,7.10
2012,06,24,03,41,7.10
2012,06,24,03,42,7.10
2012,06,24,03,43,7.10
2012,06,24,03,44,7.10
2012,06,24,03,45,7.10
2012,06,24,03,46,7.00
2012,06,24,03,47,7.00
2012,06,24,03,48,7.00
2012,06,24,03,49,7.00
2012,06,24,03,50,6.90
2012,06,24,03,51,6.90
2012,06,24,03,52,6.90
2012,06,24,03,53,6.90
2012,06,24,03,54,6.90
2012,06,24,03,55,6.90
2012,06,24,03,56,6.90
2012,06,24,03,57,6.90
2012,06,24,03,58,6.90
2012,06,24,03,59,6.90
2012,06,24,04,00,6.90
2012,06,24,04,01,6.80
2012,06,24,04,02,6.80
2012,06,24,04,03,6.80
2012,06,24,04,04,6.80
2012,06,24,04,05,6.80
2012,06,24,04,06,6.70
2012,06,24,04,07,6.70
2012,06,24,04,08,6.70
2012,06,24,04,09,6.70
2012,06,24,04,10,6.70
2012,06,24,04,11,6.70
2012,06,24,04,12,6.70
2012,06,24,04,13,6.70
2012,06,24,04,14,6.70
2012,06,24,04,15,6.60
2012,06,24,04,16,6.60
2012,06,24,04,17,6.60
2012,06,24,04,18,6.60
2012,06,24,04,19,6.60
2012,06,24,04,20,6.60
2012,06,24,04,21,6.60
2012,06,24,04,22,6.60
2012,06,24,04,23,6.60
2012,06,24,04,24,6.60
2012,06,24,04,25,6.60
2012,06,24,04,26,6.60
2012,06,24,04,27,6.60
2012,06,24,04,28,6.60
2012,06,24,04,29,6.60
2012,06,24,04,30,6.60
2012,06,24,04,31,6.60
2012,06,24,04,32,6.70
2012,06,24,04,33,6.60
2012,06,24,04,34,6.60
2012,06,24,04,35,6.60
2012,06,24,04,36,6.60
2012,06,24,04,37,6.60
2012,06,24,04,38,6.60
2012,06,24,04,39,6.60
2012,06,24,04,40,6.50
2012,06,24,04,41,6.50
2012,06,24,04,42,6.50
2012,06,24,04,43,6.50
2012,06,24,04,44,6.50
2012,06,24,04,45,6.50
2012,06,24,04,46,6.50
2012,06,24,04,47,6.50
2012,06,24,04,48,6.50
2012,06,24,04,49,6.40
2012,06,24,04,50,6.40
2012,06,24,04,51,6.40
2012,06,24,04,52,6.40
2012,06,24,04,53,6.40
2012,06,24,04,54,6.40
2012,06,24,04,55,6.40
2012,06,24,04,56,6.40
2012,06,24,04,57,6.30
2012,06,24,04,58,6.30
2012,06,24,04,59,6.30
2012,06,24,05,00,6.30
2012,06,24,05,01,6.30
2012,06,24,05,02,6.30
2012,06,24,05,03,6.30
2012,06,24,05,04,6.30
2012,06,24,05,05,6.30
2012,06,24,05,06,6.30
2012,06,24,05,07,6.30
2012,06,24,05,08,6.20
2012,06,24,05,09,6.20
2012,06,24,05,10,6.20
2012,06,24,05,11,6.20
2012,06,24,05,12,6.20
2012,06,24,05,13,6.20
2012,06,24,05,14,6.20
2012,06,24,05,15,6.20
2012,06,24,05,16,6.20
2012,06,24,05,17,6.20
2012,06,24,05,18,6.20
2012,06,24,05,19,6.20
2012,06,24,05,20,6.20
2012,06,24,05,21,6.20
2012,06,24,05,22,6.20
2012,06,24,05,23,6.20
2012,06,24,05,24,6.20
2012,06,24,05,25,6.20
2012,06,24,05,26,6.20
2012,06,24,05,27,6.20
2012,06,24,05,28,6.20
2012,06,24,05,29,6.20
2012,06,24,05,30,6.20
2012,06,24,05,31,6.20
2012,06,24,05,32,6.20
2012,06,24,05,33,6.20
2012,06,24,05,34,6.20
2012,06,24,05,35,6.20
2012,06,24,05,36,6.20
2012,06,24,05,37,6.20
2012,06,24,05,38,6.20
2012,06,24,05,39,6.30
2012,06,24,05,40,6.30
2012,06,24,05,41,6.40
2012,06,24,05,42,6.40
2012,06,24,05,43,6.40
2012,06,24,05,44,6.40
2012,06,24,05,45,6.40
2012,06,24,05,46,6.40
2012,06,24,05,47,6.40
2012,06,24,05,48,6.40
2012,06,24,05,49,6.50
2012,06,24,05,50,6.50
2012,06,24,05,51,6.50
2012,06,24,05,52,6.50
2012,06,24,05,53,6.50
2012,06,24,05,54,6.50
2012,06,24,05,55,6.50
2012,06,24,05,56,6.60
2012,06,24,05,57,6.60
2012,06,24,05,58,6.60
2012,06,24,05,59,6.60
2012,06,24,06,00,6.60
2012,06,24,06,01,6.60
2012,06,24,06,02,6.60
2012,06,24,06,03,6.60
2012,06,24,06,04,6.70
2012,06,24,06,05,6.70
2012,06,24,06,06,6.70
2012,06,24,06,07,6.70
2012,06,24,06,08,6.70
2012,06,24,06,09,6.70
2012,06,24,06,10,6.70
2012,06,24,06,11,6.70
2012,06,24,06,12,6.70
2012,06,24,06,13,6.70
2012,06,24,06,14,6.80
2012,06,24,06,15,6.80
2012,06,24,06,16,6.80
2012,06,24,06,17,6.80
2012,06,24,06,18,6.90
2012,06,24,06,19,6.90
2012,06,24,06,20,7.00
2012,06,24,06,21,7.00
2012,06,24,06,22,7.10
2012,06,24,06,23,7.10
2012,06,24,06,24,7.20
2012,06,24,06,25,7.20
2012,06,24,06,26,7.20
2012,06,24,06,27,7.30
2012,06,24,06,28,7.30
2012,06,24,06,29,7.30
2012,06,24,06,30,7.30
2012,06,24,06,31,7.30
2012,06,24,06,32,7.40
2012,06,24,06,33,7.40
2012,06,24,06,34,7.40
2012,06,24,06,35,7.50
2012,06,24,06,36,7.50
2012,06,24,06,37,7.60
2012,06,24,06,38,7.60
2012,06,24,06,39,7.60
2012,06,24,06,40,7.70
2012,06,24,06,41,7.70
2012,06,24,06,42,7.70
2012,06,24,06,43,7.70
2012,06,24,06,44,7.80
2012,06,24,06,45,7.80
2012,06,24,06,46,7.80
2012,06,24,06,47,7.90
2012,06,24,06,48,8.00
2012,06,24,06,49,8.00
2012,06,24,06,50,8.10
2012,06,24,06,51,8.20
2012,06,24,06,52,8.30
2012,06,24,06,53,8.40
2012,06,24,06,54,8.50
2012,06,24,06,55,8.60
2012,06,24,06,56,8.70
2012,06,24,06,57,8.80
2012,06,24,06,58,8.80
2012,06,24,06,59,8.90
2012,06,24,07,00,9.00
2012,06,24,07,01,9.10
2012,06,24,07,02,9.10
2012,06,24,07,03,9.10
2012,06,24,07,04,9.20
2012,06,24,07,05,9.20
2012,06,24,07,06,9.20
2012,06,24,07,07,9.20
2012,06,24,07,08,9.30
2012,06,24,07,09,9.30
2012,06,24,07,10,9.30
2012,06,24,07,11,9.30
2012,06,24,07,12,9.30
2012,06,24,07,13,9.30
2012,06,24,07,14,9.30
2012,06,24,07,15,9.30
2012,06,24,07,16,9.30
2012,06,24,07,17,9.40
2012,06,24,07,18,9.40
2012,06,24,07,19,9.40
2012,06,24,07,20,9.40
2012,06,24,07,21,9.40
2012,06,24,07,22,9.40
2012,06,24,07,23,9.50
2012,06,24,07,24,9.50
2012,06,24,07,25,9.50
2012,06,24,07,26,9.60
2012,06,24,07,27,9.60
2012,06,24,07,28,9.60
2012,06,24,07,29,9.70
2012,06,24,07,30,9.70
2012,06,24,07,31,9.80
2012,06,24,07,32,9.80
2012,06,24,07,33,9.90
2012,06,24,07,34,10.00
2012,06,24,07,35,10.00
2012,06,24,07,36,10.10
2012,06,24,07,37,10.10
2012,06,24,07,38,10.20
2012,06,24,07,39,10.20
2012,06,24,07,40,10.30
2012,06,24,07,41,10.30
2012,06,24,07,42,10.40
2012,06,24,07,43,10.40
2012,06,24,07,44,10.40
2012,06,24,07,45,10.50
2012,06,24,07,46,10.50
2012,06,24,07,47,10.60
2012,06,24,07,48,10.60
2012,06,24,07,49,10.70
2012,06,24,07,50,10.70
2012,06,24,07,51,10.80
2012,06,24,07,52,10.80
2012,06,24,07,53,10.80
2012,06,24,07,54,10.90
2012,06,24,07,55,10.90
2012,06,24,07,56,10.90
2012,06,24,07,57,11.00
2012,06,24,07,58,11.00
2012,06,24,07,59,11.10
2012,06,24,08,00,11.10
2012,06,24,08,01,11.10
2012,06,24,08,02,11.20
2012,06,24,08,03,11.20
2012,06,24,08,04,11.30
2012,06,24,08,05,11.30
2012,06,24,08,06,11.30
2012,06,24,08,07,11.40
2012,06,24,08,08,11.40
2012,06,24,08,09,11.50
2012,06,24,08,10,11.50
2012,06,24,08,11,11.60
2012,06,24,08,12,11.60
2012,06,24,08,13,11.70
2012,06,24,08,14,11.70
2012,06,24,08,15,11.80
2012,06,24,08,16,11.80
2012,06,24,08,17,11.90
2012,06,24,08,18,11.90
2012,06,24,08,19,11.90
2012,06,24,08,20,12.00
2012,06,24,08,21,12.00
2012,06,24,08,22,12.10
2012,06,24,08,23,12.10
2012,06,24,08,24,12.10
2012,06,24,08,25,12.10
2012,06,24,08,26,12.10
2012,06,24,08,27,12.10
2012,06,24,08,28,12.20
2012,06,24,08,29,12.20
2012,06,24,08,30,12.20
2012,06,24,08,31,12.30
2012,06,24,08,32,12.30
2012,06,24,08,33,12.40
2012,06,24,08,34,12.50
2012,06,24,08,35,12.60
2012,06,24,08,36,12.70
2012,06,24,08,37,12.80
2012,06,24,08,38,12.90
2012,06,24,08,39,13.00
2012,06,24,08,40,13.10
2012,06,24,08,41,13.20
2012,06,24,08,42,13.20
2012,06,24,08,43,13.30
2012,06,24,08,44,13.30
2012,06,24,08,45,13.30
2012,06,24,08,46,13.20
2012,06,24,08,47,13.10
2012,06,24,08,48,13.10
2012,06,24,08,49,13.10
2012,06,24,08,50,13.10
2012,06,24,08,51,13.10
2012,06,24,08,52,13.10
2012,06,24,08,53,13.10
2012,06,24,08,54,13.10
2012,06,24,08,55,13.10
2012,06,24,08,56,13.20
2012,06,24,08,57,13.20
2012,06,24,08,58,13.20
2012,06,24,08,59,13.30
2012,06,24,09,00,13.30
2012,06,24,09,01,13.30
2012,06,24,09,02,13.30
2012,06,24,09,03,13.30
2012,06,24,09,04,13.40
2012,06,24,09,05,13.30
2012,06,24,09,06,13.30
2012,06,24,09,07,13.20
2012,06,24,09,08,13.20
2012,06,24,09,09,13.20
2012,06,24,09,10,13.10
2012,06,24,09,11,13.10
2012,06,24,09,12,13.10
2012,06,24,09,13,13.10
2012,06,24,09,14,13.10
2012,06,24,09,15,13.10
2012,06,24,09,16,13.10
2012,06,24,09,17,13.10
2012,06,24,09,18,13.10
2012,06,24,09,19,13.10
2012,06,24,09,20,13.20
2012,06,24,09,21,13.20
2012,06,24,09,22,13.30
2012,06,24,09,23,13.40
2012,06,24,09,24,13.50
2012,06,24,09,25,13.60
2012,06,24,09,26,13.70
2012,06,24,09,27,13.70
2012,06,24,09,28,13.70
2012,06,24,09,29,13.80
2012,06,24,09,30,13.80
2012,06,24,09,31,13.80
2012,06,24,09,32,13.80
2012,06,24,09,33,13.80
2012,06,24,09,34,13.80
2012,06,24,09,35,13.80
2012,06,24,09,36,13.90
2012,06,24,09,37,13.90
2012,06,24,09,38,13.90
2012,06,24,09,39,13.90
2012,06,24,09,40,13.90
2012,06,24,09,41,13.80
2012,06,24,09,42,13.80
2012,06,24,09,43,13.80
2012,06,24,09,44,13.80
2012,06,24,09,45,13.90
2012,06,24,09,46,13.90
2012,06,24,09,47,13.90
2012,06,24,09,48,13.90
2012,06,24,09,49,13.90
2012,06,24,09,50,13.90
2012,06,24,09,51,13.80
2012,06,24,09,52,13.80
2012,06,24,09,53,13.90
2012,06,24,09,54,13.90
2012,06,24,09,55,13.90
2012,06,24,09,56,13.90
2012,06,24,09,57,13.90
2012,06,24,09,58,13.90
2012,06,24,09,59,13.90
2012,06,24,10,00,13.80
2012,06,24,10,01,13.80
2012,06,24,10,02,13.80
2012,06,24,10,03,13.80
2012,06,24,10,04,13.80
2012,06,24,10,05,13.70
2012,06,24,10,06,13.70
2012,06,24,10,07,13.60
2012,06,24,10,08,13.60
2012,06,24,10,09,13.60
2012,06,24,10,10,13.60
2012,06,24,10,11,13.60
2012,06,24,10,12,13.70
2012,06,24,10,13,13.70
2012,06,24,10,14,13.80
2012,06,24,10,15,13.80
2012,06,24,10,16,13.80
2012,06,24,10,17,13.80
2012,06,24,10,18,13.80
2012,06,24,10,19,13.90
2012,06,24,10,20,13.90
2012,06,24,10,21,13.90
2012,06,24,10,22,13.90
2012,06,24,10,23,13.80
2012,06,24,10,24,13.80
2012,06,24,10,25,13.80
2012,06,24,10,26,13.80
2012,06,24,10,27,13.80
2012,06,24,10,28,13.80
2012,06,24,10,29,13.80
2012,06,24,10,30,13.80
2012,06,24,10,31,13.80
2012,06,24,10,32,13.90
2012,06,24,10,33,13.80
2012,06,24,10,34,13.80
2012,06,24,10,35,13.80
2012,06,24,10,36,13.90
2012,06,24,10,37,13.90
2012,06,24,10,38,13.90
2012,06,24,10,39,13.80
2012,06,24,10,40,13.80
2012,06,24,10,41,13.80
2012,06,24,10,42,13.80
2012,06,24,10,43,13.80
2012,06,24,10,44,13.70
2012,06,24,10,45,13.70
2012,06,24,10,46,13.70
2012,06,24,10,47,13.80
2012,06,24,10,48,13.80
2012,06,24,10,49,13.90
2012,06,24,10,50,14.00
2012,06,24,10,51,14.10
2012,06,24,10,52,14.10
2012,06,24,10,53,14.10
2012,06,24,10,54,14.10
2012,06,24,10,55,14.10
2012,06,24,10,56,14.10
2012,06,24,10,57,14.10
2012,06,24,10,58,14.10
2012,06,24,10,59,14.20
2012,06,24,11,00,14.20
2012,06,24,11,01,14.20
2012,06,24,11,02,14.20
2012,06,24,11,03,14.20
2012,06,24,11,04,14.30
2012,06,24,11,05,14.30
2012,06,24,11,06,14.40
2012,06,24,11,07,14.50
2012,06,24,11,08,14.60
2012,06,24,11,09,14.70
2012,06,24,11,10,14.80
2012,06,24,11,11,14.80
2012,06,24,11,12,14.80
2012,06,24,11,13,14.80
2012,06,24,11,14,14.90
2012,06,24,11,15,14.90
2012,06,24,11,16,14.90
2012,06,24,11,17,14.90
2012,06,24,11,18,15.00
2012,06,24,11,19,15.00
2012,06,24,11,20,15.00
2012,06,24,11,21,15.10
2012,06,24,11,22,15.10
2012,06,24,11,23,15.10
2012,06,24,11,24,15.10
2012,06,24,11,25,15.00
2012,06,24,11,26,15.00
2012,06,24,11,27,14.90
2012,06,24,11,28,14.80
2012,06,24,11,29,14.60
2012,06,24,11,30,14.50
2012,06,24,11,31,14.40
2012,06,24,11,32,14.30
2012,06,24,11,33,14.30
2012,06,24,11,34,14.30
2012,06,24,11,35,14.20
2012,06,24,11,36,14.30
2012,06,24,11,37,14.30
2012,06,24,11,38,14.30
2012,06,24,11,39,14.40
2012,06,24,11,40,14.40
2012,06,24,11,41,14.50
2012,06,24,11,42,14.60
2012,06,24,11,43,14.60
2012,06,24,11,44,14.70
2012,06,24,11,45,14.80
2012,06,24,11,46,14.80
2012,06,24,11,47,14.90
2012,06,24,11,48,14.90
2012,06,24,11,49,14.80
2012,06,24,11,50,14.70
2012,06,24,11,51,14.60
2012,06,24,11,52,14.60
2012,06,24,11,53,14.60
2012,06,24,11,54,14.60
2012,06,24,11,55,14.60
2012,06,24,11,56,14.60
2012,06,24,11,57,14.70
2012,06,24,11,58,14.70
2012,06,24,11,59,14.70
2012,06,24,12,00,14.70
2012,06,24,12,01,14.70
2012,06,24,12,02,14.70
2012,06,24,12,03,14.80
2012,06,24,12,04,14.80
2012,06,24,12,05,14.90
2012,06,24,12,06,15.00
2012,06,24,12,07,15.10
2012,06,24,12,08,15.20
2012,06,24,12,09,15.30
2012,06,24,12,10,15.40
2012,06,24,12,11,15.50
2012,06,24,12,12,15.60
2012,06,24,12,13,15.60
2012,06,24,12,14,15.70
2012,06,24,12,15,15.70
2012,06,24,12,16,15.80
2012,06,24,12,17,15.90
2012,06,24,12,18,16.00
2012,06,24,12,19,16.00
2012,06,24,12,20,16.00
2012,06,24,12,21,15.90
2012,06,24,12,22,15.90
2012,06,24,12,23,15.90
2012,06,24,12,24,16.00
2012,06,24,12,25,16.00
2012,06,24,12,26,16.10
2012,06,24,12,27,16.00
2012,06,24,12,28,16.10
2012,06,24,12,29,16.10
2012,06,24,12,30,16.20
2012,06,24,12,31,16.30
2012,06,24,12,32,16.40
2012,06,24,12,33,16.40
2012,06,24,12,34,16.40
2012,06,24,12,35,16.30
2012,06,24,12,36,16.30
2012,06,24,12,37,16.20
2012,06,24,12,38,16.20
2012,06,24,12,39,16.10
2012,06,24,12,40,16.20
2012,06,24,12,41,16.20
2012,06,24,12,42,16.20
2012,06,24,12,43,16.30
2012,06,24,12,44,16.40
2012,06,24,12,45,16.40
2012,06,24,12,46,16.40
2012,06,24,12,47,16.40
2012,06,24,12,48,16.40
2012,06,24,12,49,16.50
2012,06,24,12,50,16.50
2012,06,24,12,51,16.60
2012,06,24,12,52,16.60
2012,06,24,12,53,16.60
2012,06,24,12,54,16.70
2012,06,24,12,55,16.70
2012,06,24,12,56,16.80
2012,06,24,12,57,16.80
2012,06,24,12,58,16.80
2012,06,24,12,59,16.80
2012,06,24,13,00,16.80
2012,06,24,13,01,16.80
2012,06,24,13,02,16.80
2012,06,24,13,03,16.80
2012,06,24,13,04,16.80
2012,06,24,13,05,16.80
2012,06,24,13,06,16.80
2012,06,24,13,07,16.90
2012,06,24,13,08,16.90
2012,06,24,13,09,16.80
2012,06,24,13,10,16.70
2012,06,24,13,11,16.70
2012,06,24,13,12,16.60
2012,06,24,13,13,16.60
2012,06,24,13,14,16.60
2012,06,24,13,15,16.60
2012,06,24,13,16,16.50
2012,06,24,13,17,16.60
2012,06,24,13,18,16.60
2012,06,24,13,19,16.50
2012,06,24,13,20,16.40
2012,06,24,13,21,16.40
2012,06,24,13,22,16.40
2012,06,24,13,23,16.50
2012,06,24,13,24,16.50
2012,06,24,13,25,16.60
2012,06,24,13,26,16.60
2012,06,24,13,27,16.70
2012,06,24,13,28,16.80
2012,06,24,13,29,16.80
2012,06,24,13,30,16.90
2012,06,24,13,31,16.90
2012,06,24,13,32,16.90
2012,06,24,13,33,17.00
2012,06,24,13,34,17.00
2012,06,24,13,35,17.10
2012,06,24,13,36,17.10
2012,06,24,13,37,17.20
2012,06,24,13,38,17.20
2012,06,24,13,39,17.20
2012,06,24,13,40,17.30
2012,06,24,13,41,17.30
2012,06,24,13,42,17.30
2012,06,24,13,43,17.30
2012,06,24,13,44,17.30
2012,06,24,13,45,17.20
2012,06,24,13,46,17.20
2012,06,24,13,47,17.20
2012,06,24,13,48,17.30
2012,06,24,13,49,17.30
2012,06,24,13,50,17.20
2012,06,24,13,51,17.30
2012,06,24,13,52,17.30
2012,06,24,13,53,17.30
2012,06,24,13,54,17.30
2012,06,24,13,55,17.40
2012,06,24,13,56,17.40
2012,06,24,13,57,17.40
2012,06,24,13,58,17.50
2012,06,24,13,59,17.50
2012,06,24,14,00,17.60
2012,06,24,14,01,17.70
2012,06,24,14,02,17.70
2012,06,24,14,03,17.80
2012,06,24,14,04,17.80
2012,06,24,14,05,17.90
2012,06,24,14,06,18.00
2012,06,24,14,07,18.00
2012,06,24,14,08,18.00
2012,06,24,14,09,17.90
2012,06,24,14,10,17.90
2012,06,24,14,11,17.90
2012,06,24,14,12,17.90
2012,06,24,14,13,17.90
2012,06,24,14,14,17.90
2012,06,24,14,15,17.80
2012,06,24,14,16,17.80
2012,06,24,14,17,17.70
2012,06,24,14,18,17.70
2012,06,24,14,19,17.60
2012,06,24,14,20,17.60
2012,06,24,14,21,17.60
2012,06,24,14,22,17.60
2012,06,24,14,23,17.60
2012,06,24,14,24,17.60
2012,06,24,14,25,17.60
2012,06,24,14,26,17.60
2012,06,24,14,27,17.60
2012,06,24,14,28,17.60
2012,06,24,14,29,17.70
2012,06,24,14,30,17.70
2012,06,24,14,31,17.80
2012,06,24,14,32,17.80
2012,06,24,14,33,17.90
2012,06,24,14,34,17.90
2012,06,24,14,35,17.90
2012,06,24,14,36,17.90
2012,06,24,14,37,17.90
2012,06,24,14,38,17.90
2012,06,24,14,39,17.80
2012,06,24,14,40,17.90
2012,06,24,14,41,17.80
2012,06,24,14,42,17.90
2012,06,24,14,43,17.90
2012,06,24,14,44,17.90
2012,06,24,14,45,17.90
2012,06,24,14,46,18.00
2012,06,24,14,47,18.10
2012,06,24,14,48,18.20
2012,06,24,14,49,18.30
2012,06,24,14,50,18.30
2012,06,24,14,51,18.30
2012,06,24,14,52,18.30
2012,06,24,14,53,18.30
2012,06,24,14,54,18.40
2012,06,24,14,55,18.40
2012,06,24,14,56,18.40
2012,06,24,14,57,18.40
2012,06,24,14,58,18.40
2012,06,24,14,59,18.40
2012,06,24,15,00,18.40
2012,06,24,15,01,18.30
2012,06,24,15,02,18.20
2012,06,24,15,03,18.20
2012,06,24,15,04,18.20
2012,06,24,15,05,18.10
2012,06,24,15,06,18.10
2012,06,24,15,07,18.10
2012,06,24,15,08,18.00
2012,06,24,15,09,18.00
2012,06,24,15,10,18.00
2012,06,24,15,11,18.00
2012,06,24,15,12,18.00
2012,06,24,15,13,17.90
2012,06,24,15,14,17.90
2012,06,24,15,15,17.90
2012,06,24,15,16,17.90
2012,06,24,15,17,17.80
2012,06,24,15,18,17.80
2012,06,24,15,19,17.70
2012,06,24,15,20,17.70
2012,06,24,15,21,17.60
2012,06,24,15,22,17.50
2012,06,24,15,23,17.50
2012,06,24,15,24,17.40
2012,06,24,15,25,17.30
2012,06,24,15,26,17.30
2012,06,24,15,27,17.30
2012,06,24,15,28,17.30
2012,06,24,15,29,17.40
2012,06,24,15,30,17.40
2012,06,24,15,31,17.30
2012,06,24,15,32,17.30
2012,06,24,15,33,17.30
2012,06,24,15,34,17.40
2012,06,24,15,35,17.40
2012,06,24,15,36,17.40
2012,06,24,15,37,17.40
2012,06,24,15,38,17.50
2012,06,24,15,39,17.50
2012,06,24,15,40,17.50
2012,06,24,15,41,17.50
2012,06,24,15,42,17.50
2012,06,24,15,43,17.50
2012,06,24,15,44,17.50
2012,06,24,15,45,17.60
2012,06,24,15,46,17.60
2012,06,24,15,47,17.50
2012,06,24,15,48,17.50
2012,06,24,15,49,17.50
2012,06,24,15,50,17.50
2012,06,24,15,51,17.40
2012,06,24,15,52,17.40
2012,06,24,15,53,17.40
2012,06,24,15,54,17.40
2012,06,24,15,55,17.40
2012,06,24,15,56,17.50
2012,06,24,15,57,17.60
2012,06,24,15,58,17.50
2012,06,24,15,59,17.50
2012,06,24,16,00,17.50
2012,06,24,16,01,17.50
2012,06,24,16,02,17.60
2012,06,24,16,03,17.60
2012,06,24,16,04,17.70
2012,06,24,16,05,17.70
2012,06,24,16,06,17.70
2012,06,24,16,07,17.70
2012,06,24,16,08,17.80
2012,06,24,16,09,17.80
2012,06,24,16,10,17.80
2012,06,24,16,11,17.90
2012,06,24,16,12,17.80
2012,06,24,16,13,17.80
2012,06,24,16,14,17.80
2012,06,24,16,15,17.80
2012,06,24,16,16,17.80
2012,06,24,16,17,17.80
2012,06,24,16,18,17.80
2012,06,24,16,19,17.80
2012,06,24,16,20,17.80
2012,06,24,16,21,17.90
2012,06,24,16,22,17.80
2012,06,24,16,23,17.80
2012,06,24,16,24,17.90
2012,06,24,16,25,17.90
2012,06,24,16,26,17.90
2012,06,24,16,27,17.80
2012,06,24,16,28,17.80
2012,06,24,16,29,17.80
2012,06,24,16,30,17.80
2012,06,24,16,31,17.70
2012,06,24,16,32,17.70
2012,06,24,16,33,17.70
2012,06,24,16,34,17.60
2012,06,24,16,35,17.60
2012,06,24,16,36,17.60
2012,06,24,16,37,17.60
2012,06,24,16,38,17.50
2012,06,24,16,39,17.50
2012,06,24,16,40,17.50
2012,06,24,16,41,17.50
2012,06,24,16,42,17.50
2012,06,24,16,43,17.50
2012,06,24,16,44,17.50
2012,06,24,16,45,17.50
2012,06,24,16,46,17.50
2012,06,24,16,47,17.50
2012,06,24,16,48,17.50
2012,06,24,16,49,17.40
2012,06,24,16,50,17.40
2012,06,24,16,51,17.30
2012,06,24,16,52,17.30
2012,06,24,16,53,17.30
2012,06,24,16,54,17.20
2012,06,24,16,55,17.20
2012,06,24,16,56,17.20
2012,06,24,16,57,17.20
2012,06,24,16,58,17.20
2012,06,24,16,59,17.10
2012,06,24,17,00,17.00
2012,06,24,17,01,16.90
2012,06,24,17,02,16.90
2012,06,24,17,03,16.80
2012,06,24,17,04,16.70
2012,06,24,17,05,16.60
2012,06,24,17,06,16.60
2012,06,24,17,07,16.50
2012,06,24,17,08,16.50
2012,06,24,17,09,16.40
2012,06,24,17,10,16.40
2012,06,24,17,11,16.40
2012,06,24,17,12,16.30
2012,06,24,17,13,16.30
2012,06,24,17,14,16.30
2012,06,24,17,15,16.30
2012,06,24,17,16,16.20
2012,06,24,17,17,16.20
2012,06,24,17,18,16.20
2012,06,24,17,19,16.10
2012,06,24,17,20,16.10
2012,06,24,17,21,16.10
2012,06,24,17,22,16.10
2012,06,24,17,23,16.10
2012,06,24,17,24,16.10
2012,06,24,17,25,16.10
2012,06,24,17,26,16.10
2012,06,24,17,27,16.10
2012,06,24,17,28,16.10
2012,06,24,17,29,16.10
2012,06,24,17,30,16.10
2012,06,24,17,31,16.10
2012,06,24,17,32,16.00
2012,06,24,17,33,16.00
2012,06,24,17,34,16.00
2012,06,24,17,35,16.00
2012,06,24,17,36,16.00
2012,06,24,17,37,16.10